W7KKE-3 Weather Reports


Display with metric or nautical units.
time (UTC)temp
F
wind
direction
speed
MPH
gust
MPH
rain 1hr
in
rain 24hr
in
rain mn
in
humidity
%
barometer
mb
20160526143008 54 0 0.0 0.0 0.00 0.01 0.00 93 1025.0
20160526142507 54 0 0.0 0.0 0.00 0.01 0.00 93 1024.9
20160526142007 54 0 0.0 0.0 0.00 0.01 0.00 92 1024.9
20160526141507 54 0 0.0 0.0 0.00 0.01 0.00 92 1024.7
20160526141007 54 0 0.0 0.0 0.00 0.01 0.00 92 1024.8
20160526140507 54 0 0.0 0.0 0.00 0.01 0.00 92 1024.8
20160526140008 54 0 0.0 0.0 0.00 0.02 0.00 92 1024.8
20160526135507 54 0 0.0 0.0 0.00 0.02 0.00 92 1024.7
20160526135007 54 0 0.0 0.0 0.00 0.02 0.00 92 1024.8
20160526134507 54 0 0.0 0.0 0.00 0.02 0.00 92 1024.7
20160526134007 54 0 0.0 0.0 0.00 0.02 0.00 91 1024.6
20160526133507 54 0 0.0 0.0 0.00 0.02 0.00 91 1024.6
20160526133008 54 0 0.0 0.0 0.00 0.02 0.00 91 1024.6
20160526132507 54 0 0.0 0.0 0.00 0.02 0.00 91 1024.5
20160526132007 54 0 0.0 0.0 0.00 0.02 0.00 91 1024.5
20160526131507 54 0 0.0 0.0 0.00 0.02 0.00 91 1024.5
20160526131007 54 0 0.0 0.0 0.00 0.02 0.00 91 1024.5
20160526130507 54 0 0.0 0.0 0.00 0.02 0.00 90 1024.5
20160526130008 54 0 0.0 0.0 0.00 0.02 0.00 90 1024.5
20160526125007 54 0 0.0 0.0 0.00 0.02 0.00 90 1024.4
20160526124507 54 343 0.0 8.0 0.00 0.02 0.00 90 1024.5
20160526124007 54 334 4.0 8.0 0.00 0.02 0.00 90 1024.6
20160526123507 54 315 0.0 8.0 0.00 0.02 0.00 90 1024.6
20160526123008 54 323 4.0 7.0 0.00 0.02 0.00 90 1024.5
20160526122507 54 340 2.0 7.0 0.00 0.02 0.00 90 1024.5
20160526122007 54 347 0.0 6.0 0.00 0.02 0.00 90 1024.5
20160526121507 54 0 0.0 0.0 0.00 0.02 0.00 89 1024.4
20160526121007 54 0 0.0 0.0 0.00 0.02 0.00 89 1024.4
20160526120507 54 0 0.0 0.0 0.00 0.02 0.00 89 1024.3
20160526120008 54 0 0.0 0.0 0.00 0.02 0.00 89 1024.3
20160526115507 54 0 0.0 0.0 0.00 0.02 0.00 89 1024.3
20160526115007 54 0 0.0 0.0 0.00 0.02 0.00 89 1024.3
20160526114507 54 0 0.0 0.0 0.00 0.02 0.00 88 1024.3
20160526114007 54 0 0.0 0.0 0.00 0.02 0.00 88 1024.3
20160526113507 54 0 0.0 0.0 0.00 0.02 0.00 88 1024.3
20160526113008 54 0 0.0 0.0 0.00 0.02 0.00 88 1024.3
20160526112507 54 0 0.0 0.0 0.00 0.02 0.00 88 1024.3
20160526112007 54 0 0.0 0.0 0.00 0.02 0.00 87 1024.3
20160526111507 55 0 0.0 0.0 0.00 0.02 0.00 87 1024.3
20160526111007 55 0 0.0 0.0 0.00 0.02 0.00 87 1024.4
20160526110507 55 0 0.0 0.0 0.00 0.02 0.00 86 1024.4
20160526110008 55 0 0.0 0.0 0.00 0.02 0.00 86 1024.4
20160526105507 55 0 0.0 0.0 0.00 0.02 0.00 86 1024.5
20160526105007 55 0 0.0 7.0 0.00 0.02 0.00 86 1024.4
20160526104508 55 0 0.0 7.0 0.00 0.02 0.00 85 1024.5
20160526104007 55 0 0.0 7.0 0.00 0.02 0.00 85 1024.4
20160526103507 55 338 0.0 7.0 0.00 0.02 0.00 85 1024.5
20160526103008 55 337 0.0 10.0 0.00 0.02 0.00 86 1024.5
20160526102507 55 303 4.0 10.0 0.00 0.02 0.00 86 1024.5
20160526102007 55 347 5.0 10.0 0.00 0.02 0.00 85 1024.6
20160526101507 55 309 6.0 10.0 0.00 0.02 0.00 86 1024.6
20160526101007 55 322 0.0 10.0 0.00 0.02 0.00 86 1024.7
20160526100507 55 323 6.0 17.0 0.00 0.02 0.00 85 1024.7
20160526100008 55 316 9.0 17.0 0.00 0.02 0.00 85 1024.7
20160526095507 55 331 9.0 17.0 0.00 0.02 0.00 86 1024.7
20160526095007 56 333 8.0 15.0 0.00 0.02 0.00 86 1024.6
20160526094507 56 305 10.0 14.0 0.00 0.02 0.00 87 1024.7
20160526094007 56 319 6.0 11.0 0.00 0.02 0.00 87 1024.6
20160526093507 56 341 7.0 11.0 0.00 0.02 0.00 87 1024.7
20160526093008 56 327 7.0 12.0 0.00 0.02 0.00 87 1024.6
20160526092507 56 316 6.0 12.0 0.00 0.02 0.00 87 1024.6
20160526092007 55 338 7.0 12.0 0.00 0.02 0.00 87 1024.6
20160526091517 55 322 9.0 12.0 0.00 0.02 0.00 87 1024.6
20160526091007 55 317 6.0 10.0 0.00 0.02 0.00 86 1024.6
20160526090507 55 320 0.0 10.0 0.00 0.02 0.00 87 1024.6
20160526090008 55 331 4.0 10.0 0.00 0.02 0.00 87 1024.6
20160526085507 55 331 4.0 8.0 0.00 0.02 0.00 87 1024.6
20160526085008 55 350 2.0 7.0 0.00 0.02 0.00 87 1024.6
20160526084507 56 316 0.0 7.0 0.00 0.02 0.00 87 1024.6
20160526084007 56 338 5.0 7.0 0.00 0.02 0.00 87 1024.5
20160526083507 56 343 0.0 7.0 0.00 0.02 0.00 87 1024.6
20160526083007 56 4 1.0 7.0 0.00 0.02 0.00 87 1024.6
20160526082507 56 341 5.0 7.0 0.00 0.02 0.00 87 1024.7
20160526082007 56 334 5.0 10.0 0.00 0.02 0.00 86 1024.6
20160526081507 56 347 3.0 10.0 0.00 0.02 0.00 86 1024.6
20160526081007 55 309 0.0 10.0 0.00 0.02 0.00 86 1024.6
20160526080507 55 337 3.0 7.0 0.00 0.02 0.00 86 1024.7
20160526080007 55 305 0.0 7.0 0.00 0.02 0.00 85 1024.7
20160526075507 55 350 1.0 6.0 0.00 0.02 0.00 85 1024.7
20160526075007 55 326 1.0 5.0 0.00 0.02 0.00 85 1024.8
20160526074507 56 0 0.0 0.0 0.00 0.02 0.00 84 1024.8
20160526074007 56 0 0.0 0.0 0.00 0.02 0.00 84 1024.8
20160526073507 56 0 0.0 0.0 0.00 0.02 0.00 84 1024.8
20160526073007 56 0 0.0 0.0 0.00 0.02 0.00 83 1024.8
20160526072507 56 0 0.0 0.0 0.00 0.02 0.00 83 1024.8
20160526072007 56 0 0.0 7.0 0.00 0.02 0.00 82 1024.8
20160526071507 56 0 0.0 7.0 0.00 0.02 0.00 82 1024.8
20160526071007 56 341 0.0 7.0 0.00 0.02 0.00 82 1024.9
20160526070507 56 330 4.0 7.0 0.00 0.02 0.00 82 1024.9
20160526070007 56 313 5.0 11.0 0.00 0.02 0.00 81 1024.8
20160526065507 56 329 7.0 11.0 0.00 0.02 0.02 80 1024.8
20160526065007 56 330 6.0 11.0 0.00 0.02 0.02 80 1024.8
20160526064508 56 330 7.0 9.0 0.00 0.02 0.02 81 1024.9
20160526064007 56 337 5.0 7.0 0.00 0.02 0.02 81 1024.9
20160526063507 56 347 5.0 14.0 0.00 0.02 0.02 81 1024.9
20160526063008 56 334 6.0 14.0 0.00 0.02 0.02 81 1025.0
20160526062507 56 336 8.0 14.0 0.00 0.02 0.02 81 1025.0
20160526062007 56 310 10.0 13.0 0.00 0.02 0.02 82 1025.0
20160526061507 56 312 7.0 13.0 0.00 0.02 0.02 83 1025.0
20160526061007 56 309 7.0 13.0 0.00 0.02 0.02 83 1024.9
20160526060506 56 337 8.0 13.0 0.00 0.02 0.02 82 1024.9
20160526060007 56 317 10.0 13.0 0.00 0.02 0.02 83 1024.9
20160526055507 56 344 7.0 13.0 0.00 0.02 0.02 84 1024.8
20160526055006 56 333 4.0 11.0 0.00 0.02 0.02 84 1024.8
20160526054507 56 333 4.0 11.0 0.00 0.02 0.02 84 1024.8
20160526054007 56 329 7.0 11.0 0.00 0.02 0.02 84 1024.8
20160526053507 56 348 4.0 9.0 0.00 0.02 0.02 85 1024.8
20160526053008 56 320 7.0 11.0 0.00 0.02 0.02 85 1024.8
20160526052507 56 330 6.0 11.0 0.00 0.02 0.02 85 1024.8
20160526052007 56 323 0.0 11.0 0.00 0.02 0.02 85 1024.8
20160526051507 56 355 5.0 11.0 0.00 0.02 0.02 85 1024.8
20160526051007 57 323 7.0 14.0 0.00 0.02 0.02 86 1024.8
20160526050506 57 331 8.0 14.0 0.00 0.02 0.02 86 1024.8
20160526050007 57 306 6.0 14.0 0.00 0.02 0.02 86 1024.7
20160526045506 57 341 10.0 13.0 0.00 0.02 0.02 86 1024.8
20160526045006 57 313 9.0 13.0 0.00 0.02 0.02 86 1024.7
20160526044507 57 351 8.0 13.0 0.00 0.02 0.02 86 1024.6
20160526044007 57 352 10.0 16.0 0.00 0.02 0.02 86 1024.6
20160526043506 57 315 7.0 16.0 0.00 0.02 0.02 87 1024.6
20160526043007 57 333 10.0 16.0 0.00 0.02 0.02 87 1024.5
20160526042506 57 310 7.0 12.0 0.00 0.02 0.02 87 1024.4
20160526042006 57 330 8.0 12.0 0.00 0.02 0.02 86 1024.5
20160526041507 57 303 3.0 8.0 0.00 0.02 0.02 86 1024.4
20160526041007 57 340 6.0 8.0 0.00 0.02 0.02 86 1024.4
20160526040506 57 330 7.0 13.0 0.00 0.02 0.02 86 1024.4
20160526040007 57 324 5.0 13.0 0.00 0.02 0.02 86 1024.3
20160526035506 57 327 8.0 13.0 0.00 0.02 0.02 86 1024.4
20160526035006 57 292 8.0 12.0 0.00 0.02 0.02 86 1024.5
20160526034507 57 340 10.0 15.0 0.00 0.02 0.02 86 1024.4
20160526034006 57 337 7.0 15.0 0.00 0.02 0.02 86 1024.4
20160526033506 57 305 11.0 15.0 0.00 0.02 0.02 86 1024.5
20160526033008 57 289 9.0 15.0 0.00 0.02 0.02 86 1024.3
20160526032506 57 312 9.0 17.0 0.00 0.02 0.02 86 1024.3
20160526032006 57 343 9.0 17.0 0.00 0.02 0.02 86 1024.3
20160526031508 58 337 10.0 17.0 0.00 0.02 0.02 86 1024.3
20160526031006 58 340 10.0 16.0 0.00 0.02 0.02 86 1024.2
20160526030506 58 317 9.0 16.0 0.00 0.02 0.02 85 1024.2
20160526030007 58 313 10.0 16.0 0.00 0.02 0.02 86 1024.1
20160526025506 58 329 9.0 16.0 0.00 0.02 0.02 86 1024.2
20160526025006 58 343 8.0 16.0 0.00 0.02 0.02 85 1024.2
20160526024508 58 294 10.0 14.0 0.00 0.02 0.02 84 1024.1
20160526024006 58 337 6.0 14.0 0.00 0.02 0.02 82 1024.0
20160526023506 58 319 8.0 14.0 0.00 0.02 0.02 81 1024.1
20160526023007 59 330 9.0 14.0 0.00 0.02 0.02 81 1024.0
20160526022506 59 334 8.0 16.0 0.00 0.02 0.02 81 1024.0
20160526022006 59 343 9.0 16.0 0.00 0.02 0.02 80 1024.0
20160526021507 60 341 9.0 16.0 0.00 0.02 0.02 79 1024.0
20160526021006 60 310 10.0 15.0 0.00 0.02 0.02 79 1023.9
20160526020506 60 305 12.0 15.0 0.00 0.02 0.02 79 1023.9
20160526020008 60 323 8.0 16.0 0.00 0.02 0.02 79 1023.9
20160526015506 60 312 10.0 16.0 0.00 0.02 0.02 78 1023.9
20160526015006 60 320 9.0 16.0 0.00 0.02 0.02 77 1023.9
20160526014507 60 330 9.0 15.0 0.00 0.02 0.02 78 1023.9
20160526014006 60 303 10.0 14.0 0.00 0.02 0.02 78 1023.9
20160526013506 61 322 11.0 18.0 0.00 0.02 0.02 78 1023.9
20160526013007 61 320 11.0 18.0 0.00 0.02 0.02 78 1024.0
20160526012506 61 336 9.0 18.0 0.00 0.02 0.02 78 1024.0
20160526012006 61 316 11.0 17.0 0.00 0.02 0.02 78 1024.0
20160526011507 61 333 11.0 17.0 0.00 0.02 0.02 78 1024.0
20160526011006 61 326 12.0 18.0 0.00 0.02 0.02 78 1024.0
20160526010506 61 333 13.0 18.0 0.00 0.02 0.02 77 1024.1
20160526010007 61 310 10.0 18.0 0.00 0.02 0.02 77 1024.0
20160526005507 62 313 12.0 18.0 0.00 0.02 0.02 77 1024.1
20160526005006 62 310 10.0 18.0 0.00 0.02 0.02 78 1024.0
20160526004507 62 313 11.0 19.0 0.00 0.02 0.02 78 1024.0
20160526004006 62 320 10.0 19.0 0.00 0.02 0.02 78 1024.0
20160526003506 62 330 11.0 19.0 0.00 0.02 0.02 77 1024.0
20160526003007 62 317 11.0 18.0 0.00 0.02 0.02 77 1024.1
20160526002506 63 309 12.0 18.0 0.00 0.02 0.02 77 1024.1
20160526002006 63 326 13.0 18.0 0.00 0.02 0.02 77 1024.1
20160526001507 63 317 13.0 19.0 0.00 0.02 0.02 78 1024.2
20160526001006 62 284 11.0 19.0 0.00 0.02 0.02 80 1024.1
20160526000507 62 315 11.0 19.0 0.00 0.02 0.02 81 1024.1
20160526000007 62 333 11.0 18.0 0.00 0.02 0.02 81 1024.1
20160525235506 62 338 11.0 18.0 0.00 0.02 0.02 81 1024.0
20160525235006 62 326 12.0 17.0 0.00 0.02 0.02 81 1024.1
20160525234507 62 341 13.0 17.0 0.00 0.02 0.02 81 1024.1
20160525234006 62 310 10.0 18.0 0.00 0.02 0.02 81 1024.0
20160525233506 62 337 11.0 18.0 0.00 0.02 0.02 81 1024.0
20160525233007 62 322 12.0 18.0 0.00 0.02 0.02 79 1024.0
20160525232506 63 310 9.0 17.0 0.00 0.02 0.02 80 1024.0
20160525232006 63 323 13.0 18.0 0.00 0.02 0.02 80 1024.0
20160525231508 63 301 11.0 18.0 0.00 0.02 0.02 80 1023.9
20160525231006 63 347 11.0 18.0 0.00 0.02 0.02 80 1024.0
20160525230506 63 319 11.0 17.0 0.00 0.02 0.02 80 1024.0
20160525230007 63 333 12.0 20.0 0.00 0.02 0.02 79 1024.0
20160525225506 63 303 11.0 20.0 0.00 0.02 0.02 81 1024.0
20160525225006 62 308 11.0 20.0 0.00 0.02 0.02 81 1024.0
20160525224507 62 317 9.0 19.0 0.00 0.02 0.02 81 1024.0
20160525224006 62 313 12.0 19.0 0.00 0.02 0.02 81 1024.1
20160525223506 62 323 13.0 19.0 0.00 0.02 0.02 80 1024.1
20160525223008 62 330 12.0 20.0 0.00 0.02 0.02 81 1024.1
20160525222506 62 327 12.0 20.0 0.00 0.02 0.02 82 1024.1
20160525222006 62 313 11.0 20.0 0.00 0.02 0.02 82 1024.1
20160525221508 62 334 12.0 18.0 0.00 0.02 0.02 83 1024.1
20160525221007 62 334 12.0 18.0 0.00 0.02 0.02 82 1024.1
20160525220506 62 327 11.0 17.0 0.00 0.02 0.02 82 1024.1
20160525220007 62 337 9.0 16.0 0.00 0.02 0.02 81 1024.1
20160525215506 63 333 12.0 20.0 0.00 0.02 0.02 80 1024.1
20160525215006 63 327 14.0 20.0 0.00 0.02 0.02 79 1024.0
20160525214506 64 315 11.0 20.0 0.00 0.02 0.02 80 1023.9
20160525214006 64 324 14.0 19.0 0.00 0.02 0.02 81 1023.9
20160525213506 64 317 13.0 19.0 0.00 0.02 0.02 81 1023.8
20160525213007 64 319 14.0 19.0 0.00 0.02 0.02 82 1023.9
20160525212506 64 323 12.0 18.0 0.00 0.02 0.02 81 1023.8
20160525212006 65 324 13.0 18.0 0.00 0.02 0.02 78 1023.7
20160525211506 66 292 12.0 17.0 0.00 0.02 0.02 77 1023.8
20160525211006 66 315 10.0 16.0 0.00 0.02 0.02 76 1023.8
20160525210007 67 299 10.0 15.0 0.00 0.02 0.02 76 1023.8
20160525205506 67 338 10.0 16.0 0.00 0.02 0.02 78 1023.7
20160525205006 66 312 10.0 16.0 0.00 0.02 0.02 78 1023.7
20160525204506 66 313 10.0 16.0 0.00 0.02 0.02 78 1023.6
20160525204006 66 313 11.0 15.0 0.00 0.02 0.02 78 1023.6
20160525203506 66 315 11.0 15.0 0.00 0.02 0.02 77 1023.5
20160525203007 66 317 9.0 15.0 0.00 0.02 0.02 78 1023.5
20160525202506 66 327 9.0 15.0 0.00 0.02 0.02 78 1023.5
20160525202006 67 310 12.0 15.0 0.00 0.02 0.02 77 1023.5
20160525201506 66 319 9.0 15.0 0.00 0.02 0.02 81 1023.5
20160525201006 66 330 8.0 15.0 0.00 0.02 0.02 82 1023.5
20160525200506 66 327 9.0 16.0 0.00 0.02 0.02 85 1023.5
20160525200007 65 324 11.0 16.0 0.00 0.02 0.02 86 1023.5
20160525195506 65 331 12.0 16.0 0.00 0.02 0.02 87 1023.5
20160525195006 65 334 12.0 15.0 0.00 0.02 0.02 87 1023.5
20160525194506 65 306 10.0 14.0 0.00 0.02 0.02 88 1023.5
20160525194006 64 322 10.0 14.0 0.00 0.02 0.02 88 1023.6
20160525193506 65 329 8.0 15.0 0.00 0.02 0.02 88 1023.6
20160525193007 64 296 8.0 15.0 0.00 0.02 0.02 91 1023.6
20160525192506 63 292 10.0 15.0 0.00 0.02 0.02 93 1023.6
20160525192006 62 302 9.0 13.0 0.00 0.02 0.02 94 1023.5
20160525191507 61 323 8.0 14.0 0.00 0.02 0.02 94 1023.6
20160525191006 61 322 8.0 14.0 0.00 0.02 0.02 93 1023.6
20160525190506 61 316 9.0 14.0 0.00 0.02 0.02 93 1023.5
20160525190007 61 299 9.0 13.0 0.00 0.02 0.02 93 1023.4
20160525185506 61 316 7.0 13.0 0.00 0.02 0.02 92 1023.4
20160525185006 62 322 8.0 15.0 0.00 0.02 0.02 92 1023.3
20160525184506 62 316 7.0 15.0 0.00 0.02 0.02 93 1023.3
20160525184006 62 282 8.0 15.0 0.00 0.02 0.02 92 1023.3
20160525183506 62 303 9.0 14.0 0.00 0.02 0.02 92 1023.2
20160525183007 62 301 8.0 14.0 0.00 0.02 0.02 92 1023.2
20160525182506 63 289 8.0 14.0 0.00 0.02 0.02 92 1023.2
20160525182006 63 294 9.0 13.0 0.00 0.02 0.02 92 1023.1
20160525181507 63 305 9.0 13.0 0.00 0.02 0.02 92 1023.1
20160525181006 63 303 9.0 13.0 0.00 0.02 0.02 93 1023.1
20160525180506 63 323 8.0 12.0 0.00 0.02 0.02 94 1023.1
20160525180007 63 301 8.0 11.0 0.00 0.02 0.02 95 1023.0
20160525175506 62 291 8.0 13.0 0.00 0.02 0.02 95 1023.0
20160525175006 62 309 8.0 13.0 0.00 0.02 0.02 95 1022.9
20160525174506 61 309 7.0 13.0 0.00 0.02 0.02 95 1022.9
20160525174006 61 299 8.0 12.0 0.00 0.02 0.02 96 1022.8
20160525173506 60 323 7.0 12.0 0.00 0.02 0.02 96 1022.8
20160525173007 59 292 8.0 12.0 0.00 0.02 0.02 96 1022.8
20160525172506 59 327 7.0 11.0 0.00 0.02 0.02 95 1022.7
20160525172006 59 324 8.0 11.0 0.00 0.02 0.02 95 1022.6
20160525171506 60 323 7.0 12.0 0.00 0.02 0.02 95 1022.6
20160525171006 60 310 8.0 12.0 0.00 0.02 0.02 95 1022.6
20160525170507 60 322 9.0 12.0 0.00 0.02 0.02 95 1022.5
20160525170007 61 302 7.0 13.0 0.00 0.02 0.02 96 1022.5
20160525165506 60 322 7.0 13.0 0.00 0.02 0.02 96 1022.5
20160525165006 59 337 8.0 13.0 0.00 0.02 0.02 97 1022.5
20160525164506 59 330 9.0 12.0 0.00 0.02 0.02 97 1022.5
20160525164006 58 316 8.0 10.0 0.00 0.02 0.02 97 1022.5
20160525163506 57 323 7.0 9.0 0.00 0.02 0.02 97 1022.4
20160525163007 57 322 8.0 11.0 0.00 0.02 0.02 97 1022.4
20160525162506 57 305 6.0 11.0 0.00 0.02 0.02 97 1022.4
20160525162006 57 336 7.0 11.0 0.00 0.02 0.02 97 1022.4
20160525161506 57 344 6.0 11.0 0.00 0.02 0.02 97 1022.3
20160525161006 57 343 8.0 11.0 0.00 0.02 0.02 97 1022.3
20160525160506 57 333 7.0 11.0 0.00 0.02 0.02 96 1022.3
20160525160007 57 331 7.0 10.0 0.00 0.02 0.02 96 1022.2
20160525155506 57 323 0.0 8.0 0.00 0.02 0.02 97 1022.2
20160525155006 57 320 5.0 8.0 0.00 0.02 0.02 97 1022.0
20160525154507 57 334 1.0 6.0 0.00 0.02 0.02 97 1022.0
20160525154006 57 334 3.0 6.0 0.00 0.02 0.02 97 1022.0
20160525153506 57 316 2.0 6.0 0.00 0.02 0.02 97 1022.0
20160525153007 57 345 0.0 6.0 0.00 0.02 0.02 97 1022.0
20160525152506 57 277 2.0 8.0 0.00 0.02 0.02 97 1021.9
20160525152006 57 347 3.0 8.0 0.01 0.02 0.02 97 1021.9
20160525151506 56 324 4.0 8.0 0.01 0.02 0.02 97 1021.8
20160525151006 56 350 0.0 6.0 0.01 0.02 0.02 97 1021.8
20160525150506 56 319 0.0 6.0 0.01 0.02 0.02 97 1021.7
20160525150007 56 348 1.0 6.0 0.01 0.02 0.02 97 1021.7
20160525145506 56 0 0.0 0.0 0.01 0.02 0.02 97 1021.6
20160525145006 56 0 0.0 0.0 0.01 0.02 0.02 97 1021.5
20160525144506 56 0 0.0 7.0 0.01 0.02 0.02 97 1021.5
20160525144006 56 357 0.0 7.0 0.01 0.02 0.02 97 1021.5
20160525143506 56 347 2.0 7.0 0.01 0.02 0.02 97 1021.4